Location: Campillo
(40.8621°N, 4.2488°W)
Time: 09:13:23
(UTC+00:00)

SJ-6B - Pass Details

Date: 01 October 2021
Orbit: 508 x 581 km, 97.6° (Epoch: 25 October)

Event Time Altitude Azimuth Distance (km) Brightness Sun altitude
Exits shadow 20:48:43 25° 301° (WNW) 1,178 5.1 -32.1°
Drops below altitude 10° 20:50:57 10° 327° (NNW) 1,874 6.2 -32.5°
Sets 20:53:16 0° 338° (NNW) 2,765 7.0 -32.8°
